User: anonymous
Location: Caltech
(34.1382°N, 118.1253°W)
Time: 02:23:25
(UTC-07:00)
Language:

Cosmos-2242 - Orbit

View from above orbital plane
View from above orbital plane
View from above satellite
View from above satellite

Ground track
Ground track

The orbit data is extracted from the following two-line orbital elements,

1 22626U 93024A   14259.12886051  .00001236  00000-0  13823-3 0  1958
2 22626 082.5198 268.5573 0019296 209.4773 150.5357 14.86031597156774
Epoch (UTC): 16 September 2014 03:05:33
Eccentricity: 0.0019296
inclination: 82.5198°
perigee height: 597 km
apogee height: 624 km
right ascension of ascending node: 268.5573°
argument of perigee: 209.4773°
revolutions per day: 14.86031597
mean anomaly at epoch: 150.5357°
orbit number at epoch: 15677

The dashed part of the orbit path shows where the satellite is in the earth's shadow,  

DLR